EWG1SP LSZH-EDDL

Flight info

Callsign EWG1SP
Flight time 0h 48m
Altitude 30000
Route VEBIT T10 TORPA DCT EDOPI DCT GIVOR DCT SORAL DCT IBERA DCT DIK/N0441F310 N853 ARCKY T853 NVO T857 BIKMU BIKMU1A
Aircraft A321/M-SDE3FGHIRWY/LB1

Departure

Time 2026-05-01 10:16
Airport Zürich Airport (LSZH)

Arrival

Time 2026-05-01 11:05
Airport Düsseldorf Airport (EDDL)
Time Latitude Longitude Altitude Speed Heading
2026-05-01 09:25 47.45412 8.55946 1397 ft 0 kts 186°
2026-05-01 10:10 47.45435 8.55950 1405 ft 4 kts 186°
2026-05-01 10:10 47.45460 8.55953 1406 ft 2 kts 186°
2026-05-01 10:10 47.45495 8.55923 1407 ft 4 kts 97°
2026-05-01 10:11 47.45497 8.55905 1402 ft 1 kts 96°
2026-05-01 10:11 47.45497 8.55904 1397 ft 0 kts 96°
2026-05-01 10:13 47.45497 8.55906 1397 ft 1 kts 96°
2026-05-01 10:13 47.45492 8.55978 1406 ft 13 kts 96°
2026-05-01 10:13 47.45481 8.56119 1397 ft 14 kts 96°
2026-05-01 10:14 47.45573 8.56389 1406 ft 17 kts 51°
2026-05-01 10:14 47.45589 8.56553 1397 ft 17 kts 96°
2026-05-01 10:14 47.45576 8.56734 1400 ft 18 kts 96°
2026-05-01 10:14 47.45562 8.56921 1402 ft 16 kts 96°
2026-05-01 10:15 47.45623 8.57023 1401 ft 14 kts
2026-05-01 10:15 47.45666 8.56949 1399 ft 8 kts 275°
2026-05-01 10:15 47.45666 8.56940 1399 ft 0 kts 275°
2026-05-01 10:15 47.45668 8.56909 1399 ft 18 kts 275°
2026-05-01 10:16 47.45716 8.56233 1400 ft 111 kts 276°
2026-05-01 10:16 47.45821 8.54748 1538 ft 167 kts 278°
2026-05-01 10:16 47.46052 8.51294 3449 ft 180 kts 275°
2026-05-01 10:17 47.46188 8.49349 3763 ft 201 kts 274°
2026-05-01 10:17 47.44871 8.45468 4322 ft 244 kts 226°
2026-05-01 10:17 47.43678 8.43532 4796 ft 261 kts 229°
2026-05-01 10:18 47.41351 8.39283 6343 ft 269 kts 232°
2026-05-01 10:18 47.40210 8.37083 7128 ft 271 kts 232°
2026-05-01 10:18 47.39166 8.34741 7780 ft 277 kts 245°
2026-05-01 10:19 47.38767 8.31939 8426 ft 285 kts 271°
2026-05-01 10:19 47.39245 8.29094 9075 ft 291 kts 298°
2026-05-01 10:19 47.40520 8.26836 9737 ft 294 kts 323°
2026-05-01 10:20 47.43972 8.23283 10665 ft 320 kts 327°
2026-05-01 10:20 47.45871 8.21356 10819 ft 342 kts 326°
2026-05-01 10:20 47.47881 8.19304 11102 ft 358 kts 326°
2026-05-01 10:20 47.49947 8.17198 11667 ft 363 kts 328°
2026-05-01 10:21 47.52245 8.15687 12276 ft 364 kts 347°
2026-05-01 10:21 47.57246 8.14260 13545 ft 369 kts 351°
2026-05-01 10:21 47.59786 8.13569 14198 ft 372 kts 351°
2026-05-01 10:22 47.64912 8.12170 15319 ft 378 kts 351°
2026-05-01 10:22 47.70125 8.10742 16427 ft 384 kts 351°
2026-05-01 10:23 47.72764 8.10016 16993 ft 387 kts 351°
2026-05-01 10:23 47.78108 8.08536 18034 ft 394 kts 351°
2026-05-01 10:23 47.80814 8.07777 18568 ft 397 kts 351°
2026-05-01 10:24 47.86283 8.06249 19477 ft 402 kts 351°
2026-05-01 10:24 47.91796 8.04713 20440 ft 405 kts 351°
2026-05-01 10:25 47.97355 8.03171 21385 ft 407 kts 351°
2026-05-01 10:25 48.02942 8.01609 22293 ft 410 kts 351°
2026-05-01 10:26 48.05754 8.00818 22743 ft 412 kts 351°
2026-05-01 10:26 48.08578 8.00023 23189 ft 414 kts 351°
2026-05-01 10:26 48.14267 7.98427 24045 ft 418 kts 351°
2026-05-01 10:27 48.20002 7.96808 24776 ft 421 kts 350°
2026-05-01 10:27 48.25794 7.95165 25494 ft 425 kts 350°
2026-05-01 10:28 48.28693 7.94345 25861 ft 427 kts 350°
2026-05-01 10:28 48.34551 7.92685 26309 ft 428 kts 350°
2026-05-01 10:28 48.37469 7.91862 26329 ft 426 kts 350°
2026-05-01 10:29 48.43272 7.90216 26325 ft 423 kts 351°
2026-05-01 10:29 48.46161 7.89392 26332 ft 422 kts 351°
2026-05-01 10:30 48.51932 7.87736 26330 ft 423 kts 351°
2026-05-01 10:30 48.57707 7.86076 26328 ft 422 kts 351°
2026-05-01 10:31 48.63480 7.84422 26330 ft 422 kts 350°
2026-05-01 10:31 48.69249 7.82767 26316 ft 422 kts 350°
2026-05-01 10:32 48.75028 7.81101 26309 ft 424 kts 350°
2026-05-01 10:32 48.77924 7.80268 26309 ft 424 kts 350°
2026-05-01 10:32 48.83728 7.78596 26314 ft 425 kts 350°
2026-05-01 10:33 48.89498 7.76933 26318 ft 425 kts 350°
2026-05-01 10:33 48.95345 7.75233 26326 ft 425 kts 350°
2026-05-01 10:34 48.98250 7.74380 26323 ft 425 kts 350°
2026-05-01 10:34 49.00173 7.73819 26326 ft 425 kts 350°
2026-05-01 10:34 49.03078 7.72976 26326 ft 425 kts 350°
2026-05-01 10:35 49.08878 7.71290 26335 ft 424 kts 351°
2026-05-01 10:35 49.11779 7.70437 26329 ft 424 kts 351°
2026-05-01 10:35 49.14674 7.69585 26333 ft 424 kts 351°
2026-05-01 10:35 49.17569 7.68737 26335 ft 424 kts 351°
2026-05-01 10:36 49.23355 7.67041 26318 ft 423 kts 351°
2026-05-01 10:36 49.26245 7.66193 26322 ft 423 kts 351°
2026-05-01 10:36 49.29175 7.65333 26327 ft 434 kts 351°
2026-05-01 10:37 49.32175 7.64446 26318 ft 444 kts 351°
2026-05-01 10:37 49.38365 7.62601 26320 ft 461 kts 351°
2026-05-01 10:37 49.41537 7.61656 26321 ft 468 kts 351°
2026-05-01 10:38 49.44749 7.60702 26314 ft 472 kts 351°
2026-05-01 10:38 49.47993 7.59739 26316 ft 476 kts 351°
2026-05-01 10:38 49.51253 7.58777 26315 ft 478 kts 351°
2026-05-01 10:38 49.54518 7.57813 26327 ft 478 kts 351°
2026-05-01 10:39 49.57777 7.56849 26328 ft 477 kts 350°
2026-05-01 10:39 49.61041 7.55877 26319 ft 478 kts 350°
2026-05-01 10:39 49.64307 7.54898 26084 ft 475 kts 350°
2026-05-01 10:39 49.67510 7.53930 25365 ft 465 kts 350°
2026-05-01 10:40 49.70682 7.52973 25023 ft 467 kts 350°
2026-05-01 10:40 49.73883 7.52011 24798 ft 469 kts 350°
2026-05-01 10:40 49.77092 7.51050 24574 ft 470 kts 350°
2026-05-01 10:40 49.80268 7.50099 24342 ft 472 kts 350°
2026-05-01 10:41 49.83539 7.49120 24108 ft 473 kts 350°
2026-05-01 10:41 49.86769 7.48151 23870 ft 473 kts 350°
2026-05-01 10:41 49.93212 7.46195 23321 ft 476 kts 350°
2026-05-01 10:42 49.96465 7.45204 23054 ft 477 kts 351°
2026-05-01 10:42 49.99725 7.44210 22782 ft 478 kts 351°
2026-05-01 10:42 50.02986 7.43219 22516 ft 477 kts 350°
2026-05-01 10:42 50.06231 7.42235 22248 ft 469 kts 351°
2026-05-01 10:43 50.09366 7.41277 21986 ft 450 kts 351°
2026-05-01 10:43 50.12375 7.40353 21724 ft 432 kts 350°
2026-05-01 10:43 50.15267 7.39460 21467 ft 416 kts 351°
2026-05-01 10:43 50.18059 7.38596 21214 ft 404 kts 351°
2026-05-01 10:44 50.20804 7.37753 20962 ft 400 kts 351°
2026-05-01 10:44 50.23533 7.36925 20712 ft 399 kts 351°
2026-05-01 10:44 50.26256 7.36097 20458 ft 399 kts 352°
2026-05-01 10:44 50.28988 7.35264 20214 ft 400 kts 351°
2026-05-01 10:45 50.31719 7.34427 19974 ft 399 kts 351°
2026-05-01 10:45 50.34441 7.33590 19729 ft 399 kts 351°
2026-05-01 10:45 50.37160 7.32749 19489 ft 399 kts 352°
2026-05-01 10:45 50.39881 7.31905 19254 ft 398 kts 351°
2026-05-01 10:46 50.42588 7.31065 19018 ft 396 kts 351°
2026-05-01 10:46 50.45296 7.30225 18785 ft 396 kts 351°
2026-05-01 10:46 50.48005 7.29385 18545 ft 397 kts 351°
2026-05-01 10:46 50.50712 7.28544 18275 ft 395 kts 351°
2026-05-01 10:47 50.53400 7.27711 18010 ft 393 kts 351°
2026-05-01 10:47 50.56082 7.26885 17746 ft 393 kts 352°
2026-05-01 10:47 50.58758 7.26062 17479 ft 391 kts 351°
2026-05-01 10:47 50.61424 7.25238 17217 ft 390 kts 351°
2026-05-01 10:48 50.64080 7.24411 16950 ft 388 kts 351°
2026-05-01 10:48 50.66706 7.23586 16562 ft 382 kts 351°
2026-05-01 10:48 50.69291 7.22769 16049 ft 376 kts 351°
2026-05-01 10:48 50.71844 7.21967 15531 ft 372 kts 351°
2026-05-01 10:49 50.74370 7.21178 15020 ft 368 kts 351°
2026-05-01 10:49 50.76872 7.20398 14503 ft 365 kts 351°
2026-05-01 10:49 50.79349 7.19623 13976 ft 361 kts 351°
2026-05-01 10:49 50.81798 7.18851 13448 ft 357 kts 351°
2026-05-01 10:50 50.84218 7.18089 12943 ft 352 kts 351°
2026-05-01 10:50 50.86576 7.17346 12458 ft 349 kts 351°
2026-05-01 10:50 50.88941 7.16599 11966 ft 345 kts 351°
2026-05-01 10:50 50.91282 7.15859 11477 ft 341 kts 351°
2026-05-01 10:51 50.93601 7.15125 11013 ft 338 kts 351°
2026-05-01 10:51 50.95859 7.14404 10876 ft 324 kts 351°
2026-05-01 10:51 50.98029 7.13710 10685 ft 314 kts 351°
2026-05-01 10:51 51.00151 7.13038 10414 ft 308 kts 351°
2026-05-01 10:52 51.02244 7.12380 10255 ft 306 kts 351°
2026-05-01 10:52 51.04339 7.11724 10156 ft 307 kts 351°
2026-05-01 10:52 51.06432 7.11061 9912 ft 308 kts 351°
2026-05-01 10:52 51.08534 7.10395 9460 ft 308 kts 351°
2026-05-01 10:53 51.10635 7.09725 8975 ft 309 kts 351°
2026-05-01 10:53 51.12723 7.09056 8629 ft 304 kts 351°
2026-05-01 10:53 51.14806 7.08385 8003 ft 305 kts 350°
2026-05-01 10:53 51.16796 7.07779 7855 ft 277 kts 356°
2026-05-01 10:54 51.18607 7.08082 7525 ft 253 kts 24°
2026-05-01 10:54 51.20138 7.09381 6904 ft 247 kts 46°
2026-05-01 10:54 51.21346 7.11291 6253 ft 244 kts 53°
2026-05-01 10:54 51.22479 7.13308 5629 ft 243 kts 53°
2026-05-01 10:55 51.23601 7.15327 5028 ft 242 kts 53°
2026-05-01 10:55 51.24727 7.17335 4629 ft 242 kts 54°
2026-05-01 10:55 51.25859 7.19301 4288 ft 239 kts 53°
2026-05-01 10:55 51.26970 7.21224 4044 ft 232 kts 53°
2026-05-01 10:56 51.28133 7.23024 4028 ft 239 kts 37°
2026-05-01 10:56 51.29744 7.23875 4040 ft 253 kts
2026-05-01 10:56 51.31503 7.23680 4033 ft 251 kts 355°
2026-05-01 10:56 51.33170 7.23281 4039 ft 236 kts 354°
2026-05-01 10:57 51.34783 7.22874 4049 ft 233 kts 353°
2026-05-01 10:57 51.36383 7.22478 4053 ft 231 kts 353°
2026-05-01 10:57 51.37962 7.22117 4039 ft 228 kts 353°
2026-05-01 10:57 51.39532 7.21762 4038 ft 225 kts 353°
2026-05-01 10:58 51.41002 7.21222 4059 ft 213 kts 334°
2026-05-01 10:58 51.42171 7.19788 4075 ft 212 kts 315°
2026-05-01 10:58 51.43242 7.18145 4053 ft 214 kts 313°
2026-05-01 10:58 51.44185 7.16323 4038 ft 211 kts 295°
2026-05-01 10:59 51.44683 7.14157 4052 ft 205 kts 274°
2026-05-01 10:59 51.44705 7.11931 4048 ft 197 kts 254°
2026-05-01 10:59 51.44303 7.09914 4037 ft 190 kts 235°
2026-05-01 10:59 51.43570 7.08200 4033 ft 185 kts 224°
2026-05-01 11:00 51.42798 7.06553 4039 ft 185 kts 225°
2026-05-01 11:00 51.42026 7.04908 4031 ft 184 kts 225°
2026-05-01 11:00 51.41253 7.03267 3926 ft 185 kts 225°
2026-05-01 11:00 51.40476 7.01615 3732 ft 184 kts 225°
2026-05-01 11:01 51.39703 6.99975 3491 ft 184 kts 225°
2026-05-01 11:01 51.38932 6.98342 3232 ft 183 kts 225°
2026-05-01 11:01 51.38161 6.96710 3004 ft 185 kts 227°
2026-05-01 11:01 51.37387 6.95073 2756 ft 184 kts 227°
2026-05-01 11:02 51.36623 6.93455 2527 ft 175 kts 225°
2026-05-01 11:02 51.35923 6.91968 2295 ft 159 kts 225°
2026-05-01 11:02 51.35283 6.90610 2073 ft 149 kts 224°
2026-05-01 11:02 51.34665 6.89309 1876 ft 146 kts 223°
2026-05-01 11:03 51.34050 6.88013 1687 ft 148 kts 224°
2026-05-01 11:03 51.33422 6.86691 1463 ft 151 kts 225°
2026-05-01 11:03 51.32800 6.85380 1264 ft 147 kts 224°
2026-05-01 11:03 51.32188 6.84084 1090 ft 145 kts 227°
2026-05-01 11:04 51.31581 6.82801 874 ft 147 kts 226°
2026-05-01 11:04 51.30969 6.81495 731 ft 145 kts 224°
2026-05-01 11:04 51.30365 6.80244 486 ft 141 kts 227°
2026-05-01 11:04 51.29771 6.78989 310 ft 142 kts 227°
2026-05-01 11:05 51.29175 6.77735 143 ft 136 kts 225°
2026-05-01 11:05 51.28694 6.76742 135 ft 78 kts 234°
2026-05-01 11:05 51.28461 6.76256 132 ft 49 kts 232°
2026-05-01 11:05 51.28293 6.76040 135 ft 22 kts 184°
2026-05-01 11:06 51.28190 6.76102 137 ft 12 kts 115°
2026-05-01 11:06 51.28223 6.76221 137 ft 13 kts 51°
2026-05-01 11:06 51.28281 6.76340 137 ft 14 kts 52°
2026-05-01 11:07 51.28310 6.76587 137 ft 12 kts 56°
2026-05-01 11:07 51.28356 6.76702 137 ft 13 kts 75°
2026-05-01 11:07 51.28308 6.76804 137 ft 13 kts 142°
2026-05-01 11:07 51.28223 6.76847 137 ft 14 kts 186°
2026-05-01 11:08 51.28152 6.76817 137 ft 8 kts 238°
2026-05-01 11:08 51.28154 6.76740 137 ft 2 kts 277°
2026-05-01 11:08 51.28155 6.76735 137 ft 0 kts 277°